CW0630 Weather Reports


time (UTC)temp
C
wind
direction
speed
KPH
gust
KPH
rain 1hr
cm
rain 24hr
cm
rain mn
cm
humidity
%
barometer
mb
20240715201011 36 195 1.6 16.1 0.00 0.00 0.00 45 1012.5
20240715191023 36 182 9.7 22.5 0.00 0.00 0.00 46 1013.5
20240715181010 36 187 3.2 3.2 0.00 0.00 0.00 44 1014.1
20240715171025 35 177 4.8 4.8 0.00 0.00 0.00 46 1014.9
20240715161041 35 237 0.0 3.2 0.00 0.00 0.00 45 1015.6
20240715151013 33 5 0.0 0.0 0.00 0.00 0.00 51 1015.6
20240715141015 32 197 0.0 0.0 0.00 0.00 0.00 54 1015.8
20240715131014 30 238 0.0 0.0 0.00 0.00 0.00 60 1016.1
20240715121030 26 305 6.4 6.4 0.00 0.00 0.00 74 1016.1
20240715111021 23 173 0.0 0.0 0.00 0.00 0.00 85 1015.4
20240715101022 23 211 0.0 3.2 0.00 0.00 0.00 89 1014.8
20240715091021 24 188 0.0 3.2 0.00 0.00 0.00 88 1014.4
20240715081014 25 190 0.0 0.0 0.00 0.00 0.00 85 1013.9
20240715071025 26 202 3.2 3.2 0.00 0.00 0.00 82 1013.9
20240715061016 27 187 6.4 9.7 0.00 0.00 0.00 80 1014.3
20240715051026 27 185 0.0 14.5 0.00 0.00 0.00 81 1014.6
20240715041023 27 170 6.4 6.4 0.00 0.00 0.00 82 1015.0
20240715031017 28 155 4.8 6.4 0.00 0.00 0.00 79 1015.3
20240715021018 30 175 3.2 3.2 0.00 0.00 0.00 74 1015.3
20240715011035 30 178 0.0 4.8 0.00 0.00 0.00 71 1015.3
20240715001028 31 191 0.0 3.2 0.00 0.00 0.00 63 1015.2
20240714231047 32 160 4.8 4.8 0.00 0.00 0.00 55 1015.5
20240714221012 34 180 1.6 1.6 0.00 0.00 0.00 52 1015.0
20240714211010 35 202 8.0 8.0 0.00 0.00 0.00 45 1015.0